Minneapolis Flying Cloud, MN

7:58 PM CDT on April 25, 2018 (GMT -0500)
Flying Cloud

Weather History for KFCM - November, 2014

Change the Weather History Date:

Monday, November 17, 2014

  Actual Average Record
Temperature  
Mean Temperature 10 °F -  
Max Temperature 15 °F 40 °F 69 °F (2001)
Min Temperature 6 °F 26 °F 6 °F (2014)
Degree Days  
Heating Degree Days 54    
Moisture  
Dew Point 3 °F    
Average Humidity 70    
Maximum Humidity 77    
Minimum Humidity 56    
Precipitation  
Precipitation 0.00 in - - ()
Sea Level Pressure  
Sea Level Pressure 29.97 in    
Wind  
Wind Speed 14 mph (WNW)    
Max Wind Speed 21 mph    
Max Gust Speed 29 mph    
Visibility 8 miles    
Events Snow    
Averages and records for this station are not official NWS values.
T = Trace of Precipitation, MM = Missing Value Source: NWS Daily Summary

Daily Weather History Graph

Daily Weather History Graph

Search for Another Location

Airport or City:

Astronomy

Nov. 17, 2014 Rise Set
Actual Time 7:13 AM CST 4:43 PM CST
Civil Twilight 6:41 AM CST 5:15 PM CST
Nautical Twilight 6:06 AM CST 5:50 PM CST
Astronomical Twilight 5:31 AM CST 6:25 PM CST
Moon 2:03 AM CST (11/17) 2:18 PM CST (11/17)
Length of Visible Light 10h 33m
Length of Day
9h 29m
Waning Crescent, 22% of the Moon is Illuminated
Nov 17
Waning Crescent
Nov 22
New
Nov 29
First Quarter
Dec 6
Full
Dec 14
Last Quarter

Hourly Weather History & Observations

Time (CST) Temp. Windchill Dew Point Humidity Pressure Visibility Wind Dir Wind Speed Gust Speed Precip Events Conditions
12:53 AM 12.0 °F -2.0 °F 6.1 °F 77% 29.94 in 10.0 mi WNW 11.5 mph - N/A   Clear
1:53 AM 12.0 °F -4.5 °F 3.9 °F 70% 29.94 in 8.0 mi WNW 16.1 mph 26.5 mph N/A   Mostly Cloudy
2:16 AM 10.0 °F -5.2 °F 1.9 °F 70% 29.90 in 10.0 mi WNW 12.7 mph 23.0 mph N/A   Partly Cloudy
2:53 AM 9.0 °F -7.9 °F 1.0 °F 70% 29.96 in 10.0 mi WNW 15.0 mph 21.9 mph N/A   Clear
3:53 AM 8.1 °F -9.0 °F 1.0 °F 73% 29.95 in 10.0 mi WNW 15.0 mph 27.6 mph N/A   Clear
4:53 AM 7.0 °F -9.8 °F 1.0 °F 77% 29.96 in 10.0 mi WNW 13.8 mph - N/A   Clear
5:53 AM 7.0 °F -10.4 °F 1.0 °F 77% 29.96 in 10.0 mi West 15.0 mph - N/A   Clear
6:53 AM 6.1 °F -8.7 °F -0.0 °F 76% 29.96 in 10.0 mi West 10.4 mph - N/A   Clear
7:53 AM 8.1 °F -7.0 °F 1.0 °F 73% 29.97 in 10.0 mi West 11.5 mph - N/A   Clear
8:53 AM 10.0 °F -4.5 °F 1.9 °F 70% 29.97 in 10.0 mi WNW 11.5 mph 20.7 mph N/A   Clear
9:20 AM 10.0 °F -6.5 °F 3.0 °F 73% 29.91 in 10.0 mi WNW 15.0 mph 21.9 mph N/A   Mostly Cloudy
9:53 AM 10.9 °F -6.5 °F 1.9 °F 67% 29.96 in 10.0 mi NW 17.3 mph 25.3 mph N/A   Overcast
10:46 AM 10.9 °F -4.1 °F 3.9 °F 73% 29.91 in 1.8 mi NW 12.7 mph - 0.00 in Snow Light Snow
10:53 AM 10.9 °F -4.7 °F 3.9 °F 73% 29.97 in 1.8 mi NW 13.8 mph - 0.00 in Snow Light Snow
10:55 AM 12.0 °F -2.0 °F 3.9 °F 70% 29.91 in 2.5 mi NW 11.5 mph - 0.00 in Snow Light Snow
10:59 AM 12.0 °F -3.4 °F 3.9 °F 70% 29.91 in 1.8 mi WNW 13.8 mph - 0.00 in Snow Light Snow
11:20 AM 12.0 °F -4.0 °F 3.0 °F 67% 29.90 in 5.0 mi NW 15.0 mph - 0.00 in Snow Light Snow
11:30 AM 12.0 °F -4.5 °F 3.0 °F 67% 29.90 in 5.0 mi NW 16.1 mph 23.0 mph 0.00 in   Haze
11:37 AM 12.9 °F -3.9 °F 1.9 °F 62% 29.90 in 9.0 mi WNW 17.3 mph 23.0 mph 0.00 in   Overcast
11:53 AM 12.0 °F -3.4 °F 3.9 °F 70% 29.96 in 3.0 mi NW 13.8 mph 23.0 mph 0.00 in Snow Light Snow
12:05 PM 12.9 °F -4.4 °F 1.9 °F 62% 29.90 in 9.0 mi NW 18.4 mph 26.5 mph 0.00 in   Overcast
12:53 PM 12.9 °F -3.9 °F 3.0 °F 65% 29.96 in 9.0 mi NW 17.3 mph 23.0 mph 0.00 in   Overcast
1:53 PM 14.0 °F -2.5 °F 1.9 °F 59% 29.97 in 10.0 mi WNW 17.3 mph - N/A   Overcast
2:53 PM 15.1 °F -0.6 °F 1.9 °F 56% 29.99 in 10.0 mi NW 16.1 mph 24.2 mph N/A   Mostly Cloudy
3:53 PM 15.1 °F -0.6 °F 3.0 °F 59% 30.00 in 10.0 mi WNW 16.1 mph 25.3 mph N/A   Clear
4:53 PM 15.1 °F 1.1 °F 7.0 °F 70% 30.02 in 10.0 mi WNW 12.7 mph 21.9 mph N/A   Overcast
5:53 PM 12.9 °F -5.3 °F 5.0 °F 71% 30.04 in 10.0 mi WNW 20.7 mph 28.8 mph N/A   Partly Cloudy
6:53 PM 12.0 °F -5.1 °F 3.9 °F 70% 30.05 in 10.0 mi WNW 17.3 mph - N/A   Clear
7:53 PM 12.0 °F -3.4 °F 3.9 °F 70% 30.05 in 10.0 mi WNW 13.8 mph 24.2 mph N/A   Clear
8:53 PM 10.9 °F -5.4 °F 3.0 °F 70% 30.06 in 10.0 mi WNW 15.0 mph 23.0 mph N/A   Clear
9:53 PM 10.0 °F -4.5 °F 1.9 °F 70% 30.06 in 10.0 mi West 11.5 mph - N/A   Clear
10:53 PM 9.0 °F -7.3 °F 1.0 °F 70% 30.04 in 10.0 mi West 13.8 mph - N/A   Clear
11:53 PM 9.0 °F -5.9 °F 1.0 °F 70% 30.04 in 10.0 mi West 11.5 mph - N/A   Partly Cloudy